Accueil
METAR-TAF:

METAR-TAF

Aéroports :

Hartford, Connecticut, États-Unis

latitude: 41-44-06N, longitude: 072-39-06W, altitude: 5 m

Observation

Le bulletin a été fait il y a 23 minutes, à 18:53 UTC
Vent 10 kt de sud
Température 28°C
Humidité 70%
Pression 1014 hPa
Visibilité: 16.1 km
Ciel clair

METAR: KHFD 151853Z 17010KT 10SM CLR 28/22 A2994 RMK AO2 LTG DSNT SE SLP137 T02830217

Heure: 15:16 (19:16 UTC)


TAF: absent

Observations et prévisions météorologiques de plus de 4000 aéroports (messages METAR et TAF).

Les stations disponibles sont représentées par des disques jaunes et rouges sur la carte.

Passer la souris dessus pour voir le nom de la station.

Cliquer dessus pour voir les observations et prévisions météorologiques.

Pour changer de carte: cliquez sur les boutons verts avec une croix noire pour zoomer, sur le bouton vert avec un tiret pour effectuer un zoom arrière, ou sur les flèches vertes pour les cartes adjacentes.


METAR-TAF: